Ireland West Airport Knock, Ireland

8:17 AM IST on June 23, 2017 (GMT +0100)
Connaught

Weather History for EIKN - April, 2014

Change the Weather History Date:

Sunday, April 20, 2014

  Actual Average Record
Temperature  
Mean Temperature 46 °F -  
Max Temperature 59 °F - - ()
Min Temperature 34 °F - - ()
Degree Days  
Heating Degree Days 18    
Moisture  
Dew Point 36 °F    
Average Humidity 57    
Maximum Humidity 95    
Minimum Humidity 26    
Precipitation  
Precipitation 0.00 in - - ()
Sea Level Pressure  
Sea Level Pressure 29.94 in    
Wind  
Wind Speed 8 mph ()    
Max Wind Speed 13 mph    
Max Gust Speed 23 mph    
Visibility 9.2 miles    
Events      
T = Trace of Precipitation, MM = Missing Value Source: Averaged Metar Reports

Daily Weather History Graph

Daily Weather History Graph

Search for Another Location

Airport or City:

Trip Planner

Search our weather history database for the weather conditions in past years. The results will help you decide how hot, cold, wet, or windy it might be!

Date:

Astronomy

Apr. 20, 2014 Rise Set
Actual Time 6:23 AM IST 8:46 PM IST
Civil Twilight 5:44 AM IST 9:25 PM IST
Nautical Twilight 4:55 AM IST 10:14 PM IST
Astronomical Twilight 3:56 AM IST 11:14 PM IST
Moon 1:33 AM IST (4/20) 10:10 AM IST (4/20)
Length of Visible Light 15h 40m
Length of Day
14h 22m
Waning Gibbous, 71% of the Moon is Illuminated
Apr 20
Waning Gibbous
Apr 22
Last Quarter
Apr 29
New
May 7
First Quarter
May 14
Full

Hourly Weather History & Observations

Time (IST) Temp. Windchill Dew Point Humidity Pressure Visibility Wind Dir Wind Speed Gust Speed Precip Events Conditions
12:00 AM 43 °F - 37 °F 72% 30.03 in - ESE 11.2 mph - -  
1:00 AM 42 °F - 37 °F 75% 30.04 in - SE 8.9 mph - -  
2:00 AM 40 °F - 37 °F 86% 30.04 in - SSE 6.7 mph - -  
3:00 AM 39 °F - 37 °F 88% 30.03 in - SE 6.7 mph - -  
4:00 AM 37 °F - 36 °F 95% 30.03 in - SE 8.9 mph - -  
5:00 AM 36 °F - 34 °F 91% 30.03 in - ESE 4.5 mph - -  
6:00 AM 35 °F - 33 °F 89% 30.02 in - ESE 4.5 mph - -  
7:00 AM 36 °F - 33 °F 84% 30.03 in - East 6.7 mph - -  
8:00 AM 40 °F - 36 °F 82% 30.02 in 16 mi East 6.7 mph - -   Scattered Clouds
8:00 AM 41.0 °F 37.1 °F 37.4 °F 87% 29.98 in 6.2 mi East 5.8 mph - N/A   Partly Cloudy
8:30 AM 42.8 °F 39.3 °F 37.4 °F 81% 29.98 in 6.2 mi ESE 5.8 mph - N/A   Partly Cloudy
9:00 AM 45 °F - 38 °F 68% 30.01 in 16 mi East 6.7 mph - -   Scattered Clouds
9:00 AM 44.6 °F 40.7 °F 37.4 °F 76% 29.98 in 6.2 mi East 6.9 mph - N/A   Partly Cloudy
9:30 AM 46.4 °F 42.9 °F 37.4 °F 71% 29.98 in 6.2 mi East 6.9 mph - N/A   Partly Cloudy
10:00 AM 48 °F - 36 °F 52% 30.00 in 19 mi East 6.7 mph - -   Scattered Clouds
10:00 AM 48.2 °F - 35.6 °F 62% 29.98 in 6.2 mi East 6.9 mph - N/A   Partly Cloudy
10:30 AM 48.2 °F - 35.6 °F 62% 29.98 in 6.2 mi ENE 6.9 mph - N/A   Partly Cloudy
11:00 AM 50 °F - 34 °F 42% 29.99 in 19 mi ENE 6.7 mph - -   Scattered Clouds
11:00 AM 50.0 °F - 33.8 °F 54% 29.98 in 6.2 mi ENE 6.9 mph - N/A   Partly Cloudy
11:30 AM 51.8 °F - 33.8 °F 50% 29.98 in 6.2 mi East 6.9 mph - N/A   Partly Cloudy
12:00 PM 52 °F - 36 °F 42% 29.98 in 19 mi NE 8.9 mph - -   Scattered Clouds
12:00 PM 51.8 °F - 35.6 °F 54% 29.95 in 6.2 mi NE 8.1 mph - N/A   Partly Cloudy
12:30 PM 53.6 °F - 33.8 °F 47% 29.95 in 6.2 mi NNE 6.9 mph - N/A   Partly Cloudy
1:00 PM 53 °F - 32 °F 32% 29.96 in 31 mi NNE 8.9 mph - -   Clear
1:00 PM 53.6 °F - 32.0 °F 44% 29.95 in - NNE 9.2 mph - N/A   Clear
1:30 PM 55.4 °F - 33.8 °F 44% 29.92 in - NNE 9.2 mph - N/A   Clear
2:00 PM 55 °F - 33 °F 31% 29.94 in 34 mi NNE 8.9 mph - -   Clear
2:00 PM 55.4 °F - 33.8 °F 44% 29.92 in - NNE 9.2 mph - N/A   Clear
2:30 PM 57.2 °F - 32.0 °F 38% 29.92 in - NE 10.4 mph - N/A   Clear
3:00 PM 57 °F - 33 °F 29% 29.92 in 31 mi NNE 8.9 mph - -   Clear
3:00 PM 57.2 °F - 33.8 °F 41% 29.92 in - NNE 9.2 mph - N/A   Clear
3:30 PM 59.0 °F - 35.6 °F 42% 29.89 in 6.2 mi NNE 12.7 mph - N/A   Scattered Clouds
4:00 PM 58 °F - 37 °F 34% 29.90 in 34 mi NNE 11.2 mph - -   Scattered Clouds
4:00 PM 57.2 °F - 37.4 °F 48% 29.89 in 6.2 mi NNE 11.5 mph - N/A   Mostly Cloudy
4:30 PM 59.0 °F - 37.4 °F 45% 29.89 in 6.2 mi North 11.5 mph - N/A   Mostly Cloudy
5:00 PM 59 °F - 33 °F 26% 29.88 in 34 mi NE 11.2 mph - -   Scattered Clouds
5:00 PM 59.0 °F - 33.8 °F 39% 29.86 in 6.2 mi NE 11.5 mph - N/A   Mostly Cloudy
5:30 PM 59.0 °F - 35.6 °F 42% 29.86 in 6.2 mi NE 11.5 mph - N/A   Mostly Cloudy
6:00 PM 58 °F - 40 °F 39% 29.87 in 25 mi North 13.4 mph - -   Scattered Clouds
6:00 PM 57.2 °F - 39.2 °F 51% 29.86 in 6.2 mi North 12.7 mph - N/A   Mostly Cloudy
6:30 PM 57.2 °F - 39.2 °F 51% 29.86 in 6.2 mi North 10.4 mph - N/A   Mostly Cloudy
7:00 PM 56 °F - 39 °F 42% 29.87 in 19 mi North 11.2 mph - -   Partly Cloudy
7:00 PM 55.4 °F - 39.2 °F 54% 29.86 in 6.2 mi North 10.4 mph 23.0 mph N/A   Mostly Cloudy
8:00 PM 54 °F - 41 °F 50% 29.87 in - North 8.9 mph - -  
9:00 PM 52 °F - 42 °F 59% 29.88 in - North 6.7 mph - -  
10:00 PM 52 °F - 42 °F 59% 29.87 in - NNE 8.9 mph - -  
11:00 PM 50 °F - 41 °F 63% 29.86 in - North 6.7 mph - -